Location: Wingville
(42.9917°N, 90.4915°W)
Time: 07:02:30
(UTC+00:00)

EO-79 - Pass Details

Date: 01 July 2022
Orbit: 588 x 603 km, 98.0° (Epoch: 15 August)

Event Time Altitude Azimuth Distance (km) Brightness Sun altitude
Rises 09:00:47 0° 355° (N) 2,855 ? -12.6°
Reaches altitude 10° 09:03:40 10° 334° (NNW) 1,950 ? -12.3°
Maximum altitude 09:06:13 16° 296° (WNW) 1,594 ? -12.0°
Enters shadow 09:08:40 11° 260° (W) 1,915 ? -11.7°
